This is the latest recevied weather packets stored in our database for station/object K6CED. If no packets are shown the sender has not sent any weather packets the latest 10 day(s).
| Time | Temp. | Humidity | Pressure | Rain* | Wind** | Luminosity | Snow |
|---|---|---|---|---|---|---|---|
| 1788404581 | 20° C | 67% | 1017.3 hPa | 0 mm | - | 0 W/m² | - |
| 1788404276 | 20° C | 65% | 1017.3 hPa | 0 mm | - | 0 W/m² | - |
| 1788403972 | 20° C | 63% | 1017.2 hPa | 0 mm | - | 0 W/m² | - |
| 1788403666 | 20.56° C | 61% | 1017.1 hPa | 0 mm | - | 0 W/m² | - |
| 1788403365 | 20.56° C | 60% | 1017.1 hPa | 0 mm | - | 0 W/m² | - |
| 1788403061 | 20.56° C | 58% | 1016.9 hPa | 0 mm | - | 0 W/m² | - |
| 1788402757 | 21.11° C | 57% | 1017.1 hPa | 0 mm | - | 0 W/m² | - |
| 1788402457 | 21.11° C | 54% | 1017.1 hPa | 0 mm | - | 0 W/m² | - |
| 1788402156 | 21.67° C | 53% | 1016.7 hPa | 0 mm | - | 1 W/m² | - |
| 1788401850 | 21.67° C | 51% | 1016.9 hPa | 0 mm | - | 2 W/m² | - |
| 1788401546 | 21.67° C | 50% | 1017 hPa | 0 mm | - | 4 W/m² | - |
| 1788401245 | 22.22° C | 49% | 1016.9 hPa | 0 mm | - | 7 W/m² | - |
| 1788400940 | 22.22° C | 48% | 1016.9 hPa | 0 mm | - | 10 W/m² | - |
| 1788400636 | 22.78° C | 47% | 1016.9 hPa | 0 mm | - | 13 W/m² | - |
| 1788400331 | 22.78° C | 46% | 1016.7 hPa | 0 mm | - | 17 W/m² | - |
| 1788400027 | 22.78° C | 47% | 1016.4 hPa | 0 mm | - | 20 W/m² | - |
| 1788399726 | 23.33° C | 48% | 1016.7 hPa | 0 mm | - | 24 W/m² | - |
| 1788399420 | 23.89° C | 48% | 1016.7 hPa | 0 mm | - | 30 W/m² | - |
| 1788399120 | 23.89° C | 47% | 1016.7 hPa | 0 mm | - | 35 W/m² | - |
| 1788398813 | 24.44° C | 45% | 1016.7 hPa | 0 mm | - | 39 W/m² | - |
| 1788398513 | 24.44° C | 43% | 1016.5 hPa | 0 mm | - | 46 W/m² | - |
| 1788398212 | 25° C | 42% | 1016.6 hPa | 0 mm | - | 54 W/m² | - |
| 1788397912 | 25° C | 41% | 1016.3 hPa | 0 mm | - | 61 W/m² | - |
| 1788397607 | 25° C | 39% | 1016.5 hPa | 0 mm | - | 71 W/m² | - |
| 1788397307 | 25° C | 40% | 1016.4 hPa | 0 mm | - | 83 W/m² | - |
* Rain latest hour (hover to see other rain measurements)
** Current wind speed in m/s (hover to see current wind gust speed)